7 * 24
多渠道服务支持
SKYMED 1(全称COSMO-SkyMed 1)是意大利航天局与国防部联合研发的X波段合成孔径雷达成像卫星,2007年6月8日由美国德尔塔-2火箭发射升空,是COSMO-SkyMed四星星座的首星。 它最高分辨率达1米,具备5种成像模式,可全天候全天时对地观测,服务于灾害监测、资源勘探、海事管理及军事侦察等领域,为地中海沿岸环境监测和全球风险管理提供了高质量遥感数据支撑。
| 数据来源 | 国际轨道数据 | AOE轨道数据 |
| 星历时间 | 2026-09-04T14:16:34+0800 13小时前 查看轨道信息 | 2026-08-29T23:00:00+0800 6天前 查看轨道信息 |
| 半长轴 | 6953.056km | 6953.109km |
| 偏心率 | 0.0001094 | 0.000114 |
| 轨道倾角 | 97.883° | 97.885° |
| 近地点辐角 | 85.091° | 77.400° |
| 升交点赤经 | 79.802° | 74.115° |
| 平近点角 | 275.043° | 157.189° |
| 近地点 | 574.158km | 574.179km |
| 远地点 | 575.68km | 575.765km |
| 周期 | 96.166分钟 | 96.167分钟 |
| 每日圈数 | 14.974047 | 14.973877 |
| 事件ID | 空间交会对象 | 最接近时刻(TCA) | 交会距离 | 交会风险概率(CRP) | 交会风险指数(CRI) | 操作 |
|---|---|---|---|---|---|---|
| CDM_260907-064203-159805-527521 |
SKYMED 1
(31598)
STARLINK-5260
(55275) | 2026-09-07T 06:42:42+0000 |
0.665 km
远距离 | 9.920863E-5 中风险 | 0.75 | |
| CDM_260905-012103-159806-917724 |
SKYMED 1
(31598)
STRIX-7
(69177) | 2026-09-05T 01:21:35+0000 |
2.012 km
极远距离 | 2.02681E-6 低风险 | 0.41 | |
| CDM_260906-001603-159806-700523 |
SKYMED 1
(31598)
STARLINK-36148
(67005) | 2026-09-06T 00:16:50+0000 |
2.580 km
极远距离 | 1.338393E-6 低风险 | 0.38 | |
| CDM_260906-083003-159805-575623 |
SKYMED 1
(31598)
STARLINK-5614
(55756) | 2026-09-06T 08:30:03+0000 |
2.530 km
极远距离 | 1.269547E-6 低风险 | 0.37 |